sat.trackr.live / text

‹ back to catalog

STARLINK-35910

NORAD 67184 · 2025-303X

PAYLOAD ACTIVE UNKNOWN

§ Identity

Operator
Country
US
Launch date
2025-12-17
Launch site
AFETR
Launch vehicle
Mass (kg)
RCS (m²)

Purposes: comms

External: N2YO · Heavens-Above · Gunter

§ Orbital elements

Epoch: 2026-05-24T22:55:09.535008Z

Period
94.27 min
Inclination
43.0044°
Eccentricity
0.0001095
Mean motion
15.27592516 rev/d
Perigee alt
482.3 km
Apogee alt
483.8 km
Semi-major
6,861.1 km
B*
4.5129e-4
RAAN
239.5951°
Arg perigee
292.2758°
Mean anomaly
67.7978°
Rev number
2,440

§ Raw data

STARLINK-359101 67184U 25303X   26144.95497147  .00012182  00000+0  45129-3 0  99992 67184  43.0044 239.5951 0001095 292.2758  67.7978 15.27592516 24404

JSON: /api/v1/satellites/67184 · /tle

For live sub-satellite position, see the globe view (requires WebGL).

§ Visibility from observer

Set your observer location to see the next 7 days of passes ≥ 10°. The values pass through the URL so the page stays shareable.

No JS? Fill the form by hand. The geolocation button needs JavaScript.